This is the latest recevied weather packets stored in our database for station/object EA1CUE-WX. If no packets are shown the sender has not sent any weather packets the latest 10 day(s).
| Time | Temp. | Humidity | Pressure | Rain* | Wind** | Luminosity | Snow |
|---|---|---|---|---|---|---|---|
| 1777631625 | 15.56° C | 7% | 1017.8 hPa | 0 mm | - | - | - |
| 1777631325 | 15.56° C | 1% | 1017.8 hPa | 0 mm | - | - | - |
| 1777631025 | 15.56° C | 10% | 1017.9 hPa | 0 mm | - | - | - |
| 1777630725 | 16.11° C | 1% | 1017.8 hPa | 0 mm | - | - | - |
| 1777630425 | 15.56° C | 6% | 1017.8 hPa | 0 mm | - | - | - |
| 1777629225 | 15.56° C | 1% | 1017.9 hPa | 0 mm | - | - | - |
| 1777628925 | 15.56° C | 1% | 1017.9 hPa | 0 mm | - | - | - |
| 1777628625 | 15.56° C | 1% | 1017.9 hPa | 0 mm | - | - | - |
| 1777628325 | 15° C | 1% | 1018 hPa | 0 mm | - | - | - |
| 1777628025 | 15° C | 1% | 1018 hPa | 0 mm | - | - | - |
| 1777627725 | 15° C | 1% | 1018 hPa | 0 mm | - | - | - |
| 1777627425 | 15° C | 1% | 1018 hPa | 0 mm | - | - | - |
| 1777627125 | 15° C | 1% | 1018 hPa | 0 mm | - | - | - |
| 1777626825 | 15° C | 1% | 1017.9 hPa | 0 mm | - | - | - |
| 1777626525 | 14.44° C | 1% | 1017.9 hPa | 0 mm | - | - | - |
| 1777626225 | 13.89° C | 1% | 1017.8 hPa | 0 mm | - | - | - |
| 1777625925 | 13.89° C | 1% | 1017.9 hPa | 0 mm | - | - | - |
| 1777625625 | 13.33° C | 1% | 1017.9 hPa | 0 mm | - | - | - |
| 1777625325 | 13.33° C | 1% | 1017.8 hPa | 0 mm | - | - | - |
| 1777625025 | 13.33° C | 1% | 1017.8 hPa | 0 mm | - | - | - |
| 1777624725 | 12.22° C | 1% | 1017.8 hPa | 0 mm | - | - | - |
| 1777624425 | 12.22° C | 1% | 1017.8 hPa | 0 mm | - | - | - |
| 1777624125 | 12.22° C | 1% | 1017.9 hPa | 0 mm | - | - | - |
| 1777623825 | 11.67° C | 1% | 1018 hPa | 0 mm | - | - | - |
| 1777623525 | 11.67° C | 1% | 1017.9 hPa | 0 mm | - | - | - |
* Rain latest hour (hover to see other rain measurements)
** Current wind speed in m/s (hover to see current wind gust speed)